This is the latest recevied weather packets stored in our database for station/object KB3AWQ. If no packets are shown the sender has not sent any weather packets the latest 10 day(s).
| Time | Temp. | Humidity | Pressure | Rain* | Wind** | Luminosity | Snow |
|---|---|---|---|---|---|---|---|
| 1777937966 | 23.33° C | 39% | 1006.5 hPa | 0 mm | - | 19 W/m² | - |
| 1777937666 | 23.33° C | 39% | 1006.4 hPa | 0 mm | - | 24 W/m² | - |
| 1777937367 | 23.33° C | 40% | 1006.4 hPa | 0 mm | - | 34 W/m² | - |
| 1777937067 | 23.33° C | 39% | 1006.4 hPa | 0 mm | - | 37 W/m² | - |
| 1777936767 | 23.33° C | 38% | 1006.3 hPa | 0 mm | - | 37 W/m² | - |
| 1777936466 | 23.89° C | 38% | 1006.3 hPa | 0 mm | - | 36 W/m² | - |
| 1777936167 | 23.89° C | 37% | 1006.3 hPa | 0 mm | - | 33 W/m² | - |
| 1777935867 | 23.89° C | 38% | 1006.4 hPa | 0 mm | - | 43 W/m² | - |
| 1777935567 | 23.89° C | 37% | 1006.3 hPa | 0 mm | - | 60 W/m² | - |
| 1777935267 | 23.89° C | 37% | 1006.3 hPa | 0 mm | - | 55 W/m² | - |
| 1777934967 | 23.89° C | 37% | 1006.3 hPa | 0 mm | - | 57 W/m² | - |
| 1777934666 | 24.44° C | 36% | 1006.2 hPa | 0 mm | - | 58 W/m² | - |
| 1777934366 | 24.44° C | 35% | 1006.2 hPa | 0 mm | - | 65 W/m² | - |
| 1777934066 | 24.44° C | 35% | 1006.2 hPa | 0 mm | - | 71 W/m² | - |
| 1777933767 | 24.44° C | 35% | 1006.2 hPa | 0 mm | - | 81 W/m² | - |
| 1777933467 | 24.44° C | 34% | 1006.3 hPa | 0 mm | - | 101 W/m² | - |
| 1777933166 | 24.44° C | 34% | 1006.2 hPa | 0 mm | - | 94 W/m² | - |
| 1777932867 | 24.44° C | 34% | 1006.3 hPa | 0 mm | - | 78 W/m² | - |
| 1777932339 | 24.44° C | 33% | 1006.1 hPa | 0 mm | - | 74 W/m² | - |
| 1777931967 | 24.44° C | 34% | 1006.1 hPa | 0 mm | - | 64 W/m² | - |
| 1777931666 | 24.44° C | 32% | 1006.1 hPa | 0 mm | - | 59 W/m² | - |
| 1777931369 | 24.44° C | 33% | 1006.1 hPa | 0 mm | - | 102 W/m² | - |
| 1777931067 | 24.44° C | 33% | 1006.1 hPa | 0 mm | - | 55 W/m² | - |
| 1777930766 | 24.44° C | 34% | 1006.1 hPa | 0 mm | - | 60 W/m² | - |
| 1777930467 | 24.44° C | 33% | 1006.1 hPa | 0 mm | - | 61 W/m² | - |
* Rain latest hour (hover to see other rain measurements)
** Current wind speed in m/s (hover to see current wind gust speed)